Other Surface Observations
Issued by NWS Tucson, AZ

Home | Current Version | Previous Version | Text Only | Print | Product List | Glossary On
Versions: 1 2 3 4 5 6 7 8 9 10 11 12 13 14 15 16 17 18 19 20 21 22 23 24 25 26 27 28 29 30 31 32 33 34 35 36 37 38 39 40 41 42 43 44 45 46 47 48 49 50
000
SXUS55 KTWC 280215
OSOTWC

WEATHER ROUNDUP FOR SOUTHEAST ARIZONA
NATIONAL WEATHER SERVICE TUCSON AZ
715 PM MST THU JUL 27 2017

AZZ504>506-514-280315-
LOCATION       SKY/WX    TMP DP  RH WIND       PRES   REMARKS
TUCSON         CLOUDY    97  54  23 NW9       29.89F
DAVIS-MONTHAN  MOCLDY    96  57  27 E9        29.89S
CHILDRENS PARK N/A      N/A N/A  22 NW7               PIMA CO DEQ
ALVERNON/22ND  N/A       98 N/A N/A NW5               PIMA CO DEQ
CHERRY/GLENN   N/A      N/A N/A N/A N/A               PIMA CO DEQ
TANGERINE      N/A       99 N/A N/A NW6               PIMA CO DEQ
CONTL RANCH    N/A      100  53  21 NW8               PIMA CO DEQ
GRANT/1ST      N/A       99  52  21 W11               PIMA CO DEQ
CRAYCROFT/22ND N/A       99  53  22 N/A               PIMA CO DEQ
GOLFLINKS/KOLB N/A      N/A N/A N/A N/A               PIMA CO DEQ
AJO/12TH       N/A       99  53  22 NW9               PIMA CO DEQ
FAIRGROUNDS    N/A       94 N/A N/A W6                PIMA CO DEQ
SAGUARO        N/A       95  59  30 N2G10             *SABINO CYN
SAN CARLOS     N/A       73  67  82 N4G14             *SAN CARLOS
GREEN VALLEY   N/A       95  57  28 S3                PIMA CO DEQ
HORSE CAMP CYN N/A       79  56  45 E10G39            *ARAVAIPA CYN
RINCON MTNS    NOT AVBL
$$

AZZ509>511-280315-
LOCATION       SKY/WX    TMP DP  RH WIND       PRES   REMARKS
SAFFORD        CLOUDY    74  68  81 S9        30.06R
STRAY HORSE    N/A       58  52  80 NW4               *
TRAIL CABIN    N/A       60  59  98 W5                *N OF GRANVILLE
BLACK HILLS    NOT AVBL
DRY LAKE       N/A       59  54  82 NW3               *NATANES MTNS
NOON CREEK     N/A       68  59  74 S4G11             *PINALENO MTNS
COLUMBINE      N/A       53  53  100 E3G14            *PINALENO MTNS
GUTHRIE        N/A       63  56  78 N23G35            *SW OF GUTHRIE
$$

AZZ502-503-513-280315-
LOCATION       SKY/WX    TMP DP  RH WIND       PRES   REMARKS
NOGALES        CLOUDY    82  65  56 S7        30.01S
SELLS          N/A      101  54  21 NE6G11            *
SASABE         N/A       91  59  34 NW9G20            *ALTAR VLY
HOPKINS        N/A       72  51  47 N4G13             *SANTA RITA MTNS
CARR CYN       N/A       78  62  58 CALM              *W OF HEREFORD
$$

AZZ507-508-512-280315-
LOCATION       SKY/WX    TMP DP  RH WIND       PRES   REMARKS
SIERRA VISTA   MOCLDY    80  61  51 W6        30.09S
DOUGLAS        CLOUDY    73  62  68 MISG      30.05R
EMPIRE MTNS    NOT AVBL
MULESHOE RANCH N/A       82  57  42 NW5G15            *PRESERVE
HEADQUARTERS   NOT AVBL
$$

.............................NOTES.............................
THIS IS AN AUTOMATED COLLECTIVE WITH MINIMAL QUALITY CONTROL.
PIMA CO DEQ SITES HAVE NONSTANDARD WIND SENSOR HEIGHTS.
PIMA CO DEQ SITES DO NOT REPORT WIND GUSTS.
* INDICATES WIND SENSORS LOCATED AT 20 FEET INSTEAD OF 33 FEET.
..............................KEY..............................
SKY/WX - SKY CONDITION/WEATHER
TMP    - TEMPERATURE IN FAHRENHEIT
DP     - DEWPOINT IN FAHRENHEIT
RH     - RELATIVE HUMIDITY IN PERCENT
WIND   - DIRECTION AND SPEED IN MILES PER HOUR (MPH)
VRB    - VARIABLE WIND DIRECTION
PRES   - MEAN SEA LEVEL PRESSURE IN INCHES OF MERCURY
         F - FALLING PRESSURE   R - RISING PRESSURE
         S - STEADY PRESSURE
VSB    - VISIBILITY IN MILES
HX     - HEAT INDEX IN FAHRENHEIT
WCI    - WIND CHILL INDEX IN FAHRENHEIT
N/A    - NOT AVAILABLE
AFB    - AIR FORCE BASE
         DAVIS-MONTHAN IS DAVIS-MONTHAN AIR FORCE BASE
CYN    - CANYON
MTNS   - MOUNTAINS
NCA    - NATIONAL CONSERVATION AREA
NR     - NEAR
VLY    - VALLEY
CONTL  - CONTINENTAL
PIMA CO DEQ - PIMA COUNTY DEPT OF ENVIRONMENTAL QUALITY



USA.gov is the U.S. government's official web portal to all federal, state and local government web resources and services.